Regional Weather Roundup
Issued by NWS

Home | Current Version | Previous Version | Text Only | Print | Product List | Glossary On
Versions: 1 2 3 4 5 6 7 8 9 10 11 12 13 14 15 16 17 18 19 20 21 22 23 24 25 26 27 28 29 30 31 32 33 34 35 36 37 38 39 40 41 42 43 44 45 46 47 48 49 50
000
ASUS44 KBMX 301210
RWRAL

ALABAMA REGIONAL WEATHER ROUNDUP
NATIONAL WEATHER SERVICE BIRMINGHAM AL
700 AM CDT WED JUL 30 2014

NOTE: "FAIR" INDICATES FEW OR NO CLOUDS BELOW 12,000 FEET
WITH NO SIGNIFICANT WEATHER AND/OR OBSTRUCTIONS TO VISIBILITY.

THE REMARK "TC" DENOTES TEMPERATURE IN DEGREES CELSIUS.

ALZ001>011-014-016>018-020-301300-
NORTH ALABAMA

CITY           SKY/WX    TMP DP  RH WIND       PRES   REMARKS
MUSCLE SHOALS  SUNNY     59  55  87 CALM      30.12R
6HR MIN TEMP:  55; 6HR MAX TEMP:  64;

HUNTSVILLE     MOSUNNY   60  56  86 CALM      30.10S
6HR MIN TEMP:  56; 6HR MAX TEMP:  62;

DECATUR        SUNNY     58  56  93 CALM      30.11R
6HR MIN TEMP:  54; 6HR MAX TEMP:  59;

HALEYVILLE     FAIR      56  56 100 CALM      30.14R
6HR MIN TEMP:  54; 6HR MAX TEMP:  57;

GADSDEN        SUNNY     57  54  88 CALM      30.09R
6HR MIN TEMP:  55; 6HR MAX TEMP:  59;

$$

ALZ012-013-022-023-030>036-040>044-301300-
WEST CENTRAL ALABAMA

CITY           SKY/WX    TMP DP  RH WIND       PRES   REMARKS
TUSCALOOSA     SUNNY     58  56  93 CALM      30.09R
6HR MIN TEMP:  56; 6HR MAX TEMP:  62;

$$

ALZ015-024>027-033>036-040>044-301300-
CENTRAL ALABAMA

CITY           SKY/WX    TMP DP  RH WIND       PRES   REMARKS
BIRMINGHAM     PTSUNNY   61  55  81 CALM      30.11R
6HR MIN TEMP:  57; 6HR MAX TEMP:  62;

MONTGOMERY     SUNNY     62  57  83 W3        30.07R
6HR MIN TEMP:  59; 6HR MAX TEMP:  67;

SHELBY CO ARPT MOSUNNY   63  57  81 CALM      30.09R
6HR MIN TEMP:  60; 6HR MAX TEMP:  64;

MAXWELL AFB    MOSUNNY   62  57  84 NW3       30.06S
6HR MIN TEMP:  60; 6HR MAX TEMP:  67;

GREENVILLE     FAIR      61  56  83 CALM      30.06R
6HR MIN TEMP:  59; 6HR MAX TEMP:  67;

$$

ALZ019-021-028-029-037-038-045>048-301300-
EAST CENTRAL ALABAMA

CITY           SKY/WX    TMP DP  RH WIND       PRES   REMARKS
ANNISTON       SUNNY     57  54  89 SW3       30.08R
6HR MIN TEMP:  54; 6HR MAX TEMP:  63;

ALEXANDER CITY SUNNY     62  56  80 CALM      30.07S
6HR MIN TEMP:  58; 6HR MAX TEMP:  64;

AUBURN         SUNNY     61  52  72 N9        30.08R
6HR MIN TEMP:  57; 6HR MAX TEMP:  64;

$$

ALZ051>064-301300-
SOUTHWEST ALABAMA

CITY           SKY/WX    TMP DP  RH WIND       PRES   REMARKS
MOBILE         PTCLDY    67  59  75 N7        30.07R
6HR MIN TEMP:  65; 6HR MAX TEMP:  74;

BROOKLEY FIELD PTCLDY    69  60  73 N7        30.07R
6HR MIN TEMP:  68; 6HR MAX TEMP:  77; 6HR PCP: TRACE;

EVERGREEN      SUNNY     62  57  83 CALM      30.07R
6HR MIN TEMP:  59; 6HR MAX TEMP:  70;

$$

ALZ049-050-065>069-301300-
SOUTHEAST ALABAMA

CITY           SKY/WX    TMP DP  RH WIND       PRES   REMARKS
DOTHAN         SUNNY     65  60  84 N5        30.07R
6HR MIN TEMP:  63; 6HR MAX TEMP:  70;

OZARK          SUNNY     66  59  79 NW5       30.03S
6HR MIN TEMP:  63; 6HR MAX TEMP:  71;

TROY           SUNNY     60  57  89 CALM      30.06R
6HR MIN TEMP:  58; 6HR MAX TEMP:  66;

EUFAULA        FAIR      65  58  78 CALM      30.03S
6HR MIN TEMP:  59; 6HR MAX TEMP:  68;

$$


USA.gov is the U.S. government's official web portal to all federal, state and local government web resources and services.